TimeEDT,TemperatureF,Dew PointF,Humidity,Sea Level PressureIn,VisibilityMPH,Wind Direction,Wind SpeedMPH,Gust SpeedMPH,PrecipitationIn,Events,Conditions,WindDirDegrees,DateUTC
12:16 AM,55.0,52.0,89,30.16,10.0,Calm,Calm,-,N/A,,Clear,0,2013-06-21 04:16:00
12:35 AM,54.3,51.8,91,30.17,10.0,Calm,Calm,-,N/A,,Clear,0,2013-06-21 04:35:00
12:56 AM,54.5,51.8,91,30.17,10.0,Calm,Calm,-,N/A,,Clear,0,2013-06-21 04:56:00
1:15 AM,54.7,52.2,91,30.17,10.0,Calm,Calm,-,N/A,,Clear,0,2013-06-21 05:15:00
1:36 AM,54.5,52.0,91,30.17,10.0,WSW,3.5,-,N/A,,Clear,240,2013-06-21 05:36:00
1:55 AM,55.6,53.1,91,30.16,10.0,Calm,Calm,-,N/A,,Clear,0,2013-06-21 05:55:00
2:15 AM,55.4,52.3,89,30.16,10.0,Calm,Calm,-,N/A,,Clear,0,2013-06-21 06:15:00
2:36 AM,55.8,52.7,89,30.15,10.0,Calm,Calm,-,N/A,,Clear,0,2013-06-21 06:36:00
2:55 AM,55.6,52.9,91,30.15,10.0,Calm,Calm,-,N/A,,Clear,0,2013-06-21 06:55:00
3:16 AM,56.1,53.4,91,30.15,10.0,Calm,Calm,-,N/A,,Clear,0,2013-06-21 07:16:00
3:35 AM,57.2,54.5,91,30.15,10.0,Calm,Calm,-,N/A,,Clear,0,2013-06-21 07:35:00
3:56 AM,57.6,55.0,91,30.15,10.0,Calm,Calm,-,N/A,,Clear,0,2013-06-21 07:56:00
4:16 AM,57.4,54.5,90,30.14,10.0,Calm,Calm,-,N/A,,Clear,0,2013-06-21 08:16:00
4:35 AM,56.3,53.8,91,30.14,10.0,SSE,3.5,-,N/A,,Clear,160,2013-06-21 08:35:00
4:56 AM,57.2,54.5,91,30.14,10.0,Calm,Calm,-,N/A,,Mostly Cloudy,0,2013-06-21 08:56:00
5:15 AM,56.5,54.3,92,30.15,10.0,Calm,Calm,-,N/A,,Scattered Clouds,0,2013-06-21 09:15:00
5:35 AM,56.1,53.6,91,30.14,10.0,Calm,Calm,-,N/A,,Scattered Clouds,0,2013-06-21 09:35:00
5:56 AM,55.8,53.8,93,30.14,10.0,Calm,Calm,-,N/A,,Clear,0,2013-06-21 09:56:00
6:15 AM,55.2,53.1,92,30.15,10.0,Calm,Calm,-,N/A,,Clear,0,2013-06-21 10:15:00
6:35 AM,55.4,53.4,93,30.14,7.0,Calm,Calm,-,N/A,,Scattered Clouds,0,2013-06-21 10:35:00
6:56 AM,57.2,54.7,91,30.15,10.0,Calm,Calm,-,N/A,,Scattered Clouds,0,2013-06-21 10:56:00
7:15 AM,58.1,54.5,88,30.15,10.0,SSE,3.5,-,N/A,,Mostly Cloudy,160,2013-06-21 11:15:00
7:35 AM,58.3,54.7,88,30.15,10.0,Calm,Calm,-,N/A,,Scattered Clouds,0,2013-06-21 11:35:00
7:56 AM,59.0,55.4,88,30.15,10.0,Calm,Calm,-,N/A,,Scattered Clouds,0,2013-06-21 11:56:00
8:15 AM,59.9,55.9,87,30.15,10.0,Calm,Calm,-,N/A,,Overcast,0,2013-06-21 12:15:00
8:35 AM,60.3,56.3,87,30.14,10.0,Calm,Calm,-,N/A,,Overcast,0,2013-06-21 12:35:00
8:56 AM,61.7,57.2,85,30.14,10.0,Calm,Calm,-,N/A,,Overcast,0,2013-06-21 12:56:00
9:15 AM,62.6,58.1,85,30.13,10.0,SE,3.5,-,N/A,,Overcast,130,2013-06-21 13:15:00
9:36 AM,63.5,57.9,82,30.13,10.0,Calm,Calm,-,N/A,,Overcast,0,2013-06-21 13:36:00
9:55 AM,63.9,58.3,82,30.13,10.0,Calm,Calm,-,N/A,,Overcast,0,2013-06-21 13:55:00
10:16 AM,63.3,58.1,83,30.13,10.0,ENE,3.5,-,N/A,,Overcast,60,2013-06-21 14:16:00
10:36 AM,62.4,57.6,84,30.12,10.0,Calm,Calm,-,N/A,,Overcast,0,2013-06-21 14:36:00
10:55 AM,64.8,58.6,81,30.11,10.0,East,3.5,-,N/A,,Mostly Cloudy,90,2013-06-21 14:55:00
11:15 AM,67.8,58.8,73,30.12,10.0,Calm,Calm,-,N/A,,Scattered Clouds,0,2013-06-21 15:15:00
11:36 AM,68.7,59.9,73,30.12,10.0,Calm,Calm,-,N/A,,Mostly Cloudy,0,2013-06-21 15:36:00
11:55 AM,67.3,59.4,76,30.11,10.0,ENE,4.6,-,N/A,,Overcast,60,2013-06-21 15:55:00
12:16 PM,65.5,58.6,79,30.10,10.0,NE,5.8,-,N/A,,Overcast,50,2013-06-21 16:16:00
12:36 PM,64.2,57.9,80,30.10,10.0,Calm,Calm,-,N/A,,Overcast,0,2013-06-21 16:36:00
12:55 PM,64.4,57.9,79,30.09,10.0,NW,3.5,-,N/A,,Overcast,320,2013-06-21 16:55:00
1:16 PM,65.5,58.5,78,30.08,10.0,North,3.5,-,N/A,,Mostly Cloudy,10,2013-06-21 17:16:00
1:35 PM,66.4,58.1,75,30.08,10.0,NE,5.8,-,N/A,,Scattered Clouds,40,2013-06-21 17:35:00
1:55 PM,64.8,57.7,78,30.07,10.0,NE,5.8,-,N/A,,Scattered Clouds,50,2013-06-21 17:55:00
2:15 PM,67.3,58.6,74,30.05,10.0,ENE,5.8,-,N/A,,Clear,60,2013-06-21 18:15:00
2:35 PM,66.2,57.9,75,30.05,10.0,NE,5.8,-,N/A,,Clear,50,2013-06-21 18:35:00
2:56 PM,64.4,57.2,77,30.04,10.0,NE,6.9,-,N/A,,Clear,40,2013-06-21 18:56:00
3:15 PM,63.9,56.8,78,30.03,10.0,NE,8.1,-,N/A,,Clear,50,2013-06-21 19:15:00
3:36 PM,62.2,56.5,81,30.02,10.0,NNE,6.9,-,N/A,,Scattered Clouds,30,2013-06-21 19:36:00
3:55 PM,62.4,56.5,81,30.03,10.0,NNE,5.8,-,N/A,Rain,Light Rain,20,2013-06-21 19:55:00
4:16 PM,61.7,57.9,87,30.03,7.0,NE,6.9,-,N/A,Rain,Rain,40,2013-06-21 20:16:00
4:35 PM,61.9,57.7,86,30.02,10.0,NE,4.6,-,N/A,,Overcast,40,2013-06-21 20:35:00
4:56 PM,61.2,57.4,87,30.00,10.0,NE,6.9,-,N/A,,Overcast,50,2013-06-21 20:56:00
5:15 PM,61.3,57.7,88,29.98,10.0,ENE,6.9,-,N/A,,Overcast,60,2013-06-21 21:15:00
5:36 PM,61.7,58.1,88,29.98,10.0,ENE,3.5,-,N/A,,Overcast,60,2013-06-21 21:36:00
5:55 PM,61.7,58.1,88,29.97,10.0,NE,3.5,-,N/A,,Overcast,40,2013-06-21 21:55:00
6:16 PM,63.0,59.2,87,29.95,10.0,ESE,3.5,-,N/A,,Mostly Cloudy,110,2013-06-21 22:16:00
6:35 PM,64.0,60.4,88,29.94,10.0,Calm,Calm,-,N/A,,Mostly Cloudy,0,2013-06-21 22:35:00
6:55 PM,66.2,62.2,87,29.94,10.0,Calm,Calm,-,N/A,,Overcast,0,2013-06-21 22:55:00
7:16 PM,73.2,65.1,76,29.92,10.0,SE,6.9,-,N/A,Rain,Light Rain,130,2013-06-21 23:16:00
7:35 PM,73.9,64.4,72,29.91,10.0,SE,9.2,-,N/A,,Overcast,130,2013-06-21 23:35:00
7:55 PM,71.4,66.2,84,29.93,4.0,West,10.4,17.3,N/A,Rain,Heavy Rain,280,2013-06-21 23:55:00
8:16 PM,70.3,67.1,89,29.94,4.0,West,6.9,-,N/A,Rain,Rain,280,2013-06-22 00:16:00
8:35 PM,69.4,65.7,88,29.94,10.0,WNW,6.9,-,N/A,,Overcast,290,2013-06-22 00:35:00
8:55 PM,68.5,65.1,89,29.95,7.0,West,5.8,-,N/A,Rain,Light Rain,280,2013-06-22 00:55:00
9:16 PM,67.5,63.5,87,29.96,10.0,WNW,8.1,-,N/A,,Overcast,290,2013-06-22 01:16:00
9:35 PM,66.4,63.0,89,29.96,7.0,WNW,3.5,-,N/A,,Scattered Clouds,300,2013-06-22 01:35:00
9:55 PM,64.9,61.9,90,29.96,5.0,NNE,3.5,-,N/A,,Scattered Clouds,20,2013-06-22 01:55:00
10:16 PM,61.7,59.4,92,29.97,5.0,Calm,Calm,-,N/A,,Mostly Cloudy,0,2013-06-22 02:16:00
10:35 PM,61.7,59.5,93,29.98,4.0,Calm,Calm,-,N/A,,Overcast,0,2013-06-22 02:35:00
10:56 PM,61.9,59.9,93,29.98,4.0,Calm,Calm,-,N/A,,Overcast,0,2013-06-22 02:56:00
11:15 PM,62.2,60.3,93,29.98,5.0,Calm,Calm,-,N/A,,Overcast,0,2013-06-22 03:15:00
11:35 PM,62.6,59.9,91,29.98,5.0,Calm,Calm,-,N/A,Rain,Rain,0,2013-06-22 03:35:00
11:56 PM,62.1,59.9,93,29.97,7.0,Calm,Calm,-,N/A,Rain,Light Rain,0,2013-06-22 03:56:00